Regional Weather Roundup
Issued by NWS State College, PA

Home | Current Version | Previous Version | Graphics & Text | Print | Product List | Glossary On
Versions: 1 2 3 4 5 6 7 8 9 10 11 12 13 14 15 16 17 18 19 20 21 22 23 24 25 26 27 28 29 30 31 32 33 34 35 36 37 38 39 40 41 42 43 44 45 46 47 48 49 50
000
ASUS41 KCTP 041103
RWRCTP

REGIONAL WEATHER ROUNDUP
NATIONAL WEATHER SERVICE STATE COLLEGE PA
600 AM EST WED MAR 04 2015

Note: "fair" indicates few or no clouds below 12,000 feet with no
significant weather and/or obstructions to visibility.

* = STATION THAT DOES NOT REPORT PRECIPITATION /E.G. RAIN...SNOW...ETC/
    THUNDER OR FOG.

PAZ002>004-007>009-013>016-020>023-029>032-041200-
WESTERN PENNSYLVANIA

CITY           SKY/WX    TMP DP  RH WIND       PRES   REMARKS
ERIE           CLOUDY    34  28  79 W9        29.84R
MEADVILLE        N/A     32  28  85 W7        29.82R
FRANKLIN*      CLOUDY    32  28  86 W6        29.84S
NEW CASTLE     CLOUDY    32  32 100 CALM      29.86S FOG
BEAVER COUNTY  NOT AVBL
BUTLER*        CLOUDY    34  30  86 W5        29.87S
PITTSBURGH INT LGT SNOW  33  33 100 S3        29.85S FOG
PITTSBURGH     LGT SNOW  33  30  88 W5        29.86R FOG
INDIANA*       FOG       32  32 100 CALM      29.88S VSB 3/4
LATROBE        LGT RAIN  37  37 100 W6        29.88F
WASHINGTON CO* CLOUDY    36  34  93 SW5       29.89R
$$

PAZ004>006-010>012-017>019-024>028-033>037-041-042-045-046-049>053-041200-
CENTRAL PENNSYLVANIA

CITY           SKY/WX    TMP DP  RH WIND       PRES   REMARKS
BRADFORD       CLOUDY    31  29  92 W8        29.77R FOG
DUBOIS         LGT SNOW  33  32  96 SW10      29.79R VSB 1
CLEARFIELD     SNOW      33  32  96 SW8       29.82R VSB 1/2
JOHNSTOWN      LGT RAIN  35  34  96 W12       29.80F
ALTOONA        LGT RAIN  40  37  89 VRB3      29.82R
STATE COLLEGE  LGT RAIN  36  34  93 W8        29.82R
WILLIAMSPORT   MIX PCPN  31  28  89 SE3       29.81R FOG
SELINSGROVE    LGT RAIN  33  31  92 CALM      29.83R FOG
FT INDIANTOWN  MIX PCPN  31  30  96 NE2       29.81R FOG
CAPITAL CITY   CLOUDY    34  32  92 SW3       29.83R FOG
HARRISBURG     CLOUDY    33  31  92 S3        29.83R FOG
YORK           CLOUDY    34  34 100 CALM      29.82R FOG
$$

PAZ038>040-043-044-047-048-054-055-060>062-067>071-041200-
EASTERN PENNSYLVANIA

CITY           SKY/WX    TMP DP  RH WIND       PRES   REMARKS
SCRANTON       MIX PCPN  32  29  88 SW5       29.79R FOG
MOUNT POCONO   LGT RAIN  34  32  92 W14       29.72R FOG
ALLENTOWN      SLEET     34  31  88 SW7       29.81R FOG
QUAKERTOWN*    PTSUNNY   32  32 100 CALM      29.82R
READING        LGT RAIN  34  31  88 NW5       29.82R FOG
LANCASTER      LGT RAIN  33  33 100 CALM      29.81R VSB 1
COATESVILLE    PTSUNNY   36  36 100 W7        29.83R FOG
POTTSTOWN      CLOUDY    34  34 100 CALM      29.84R FOG
BLUE BELL      MOCLDY    36  36 100 CALM      29.83R
DOYLESTOWN     CLOUDY    32  32 100 SW3       29.81R
WILLOW GROVE   NOT AVBL
NORTH PHILA    LGT RAIN  37  32  82 W8        29.85R
PHILADELPHIA   DRIZZLE   34  33  96 W8        29.85R FOG
$$



USA.gov is the U.S. government's official web portal to all federal, state and local government web resources and services.